FW8372 Weather Reports


Display with metric or nautical units.
time (UTC)temp
F
wind
direction
speed
MPH
gust
MPH
rain 1hr
in
rain 24hr
in
rain mn
in
humidity
%
barometer
mb
20260505061858 57 138 5.0 9.0 0.00 0.00 0.00 81 1011.3
20260505061357 57 117 1.0 7.0 0.00 0.00 0.00 80 1011.2
20260505060854 58 85 1.0 7.0 0.00 0.00 0.00 80 1011.2
20260505060350 58 96 5.0 8.0 0.00 0.00 0.00 79 1011.1
20260505055846 58 76 5.0 9.0 0.00 0.00 0.00 79 1011.1
20260505055342 58 109 3.0 9.0 0.00 0.00 0.00 79 1011.0
20260505054840 58 89 4.0 7.0 0.00 0.00 0.00 79 1011.0
20260505054337 59 94 3.0 9.0 0.00 0.00 0.00 78 1010.8
20260505053835 59 99 0.0 5.0 0.00 0.00 0.00 78 1010.8
20260505053332 59 89 2.0 8.0 0.00 0.00 0.00 77 1011.0
20260505052828 59 80 3.0 10.0 0.00 0.00 0.00 77 1010.7
20260505052325 59 106 6.0 14.0 0.00 0.00 0.00 76 1010.6
20260505051823 60 129 7.0 9.0 0.00 0.00 0.00 76 1010.7
20260505051320 60 101 4.0 9.0 0.00 0.00 0.00 75 1010.6
20260505050818 60 108 7.0 9.0 0.00 0.00 0.00 75 1010.7
20260505050317 60 56 4.0 9.0 0.00 0.00 0.00 74 1010.7
20260505041746 64 162 1.0 5.0 0.00 0.00 0.00 69 1010.0
20260505041243 64 96 1.0 3.0 0.00 0.00 0.00 69 1010.0
20260505040741 64 165 2.0 6.0 0.00 0.00 0.00 68 1010.0
20260505040238 65 155 1.0 6.0 0.00 0.00 0.00 67 1009.9
20260505035735 65 134 2.0 5.0 0.00 0.00 0.00 67 1009.9
20260505035231 65 116 1.0 5.0 0.00 0.00 0.00 66 1009.9
20260505034728 66 164 1.0 3.0 0.00 0.00 0.00 66 1009.9
20260505034224 66 178 1.0 2.0 0.00 0.00 0.00 65 1009.7
20260505033721 66 176 4.0 5.0 0.00 0.00 0.00 65 1009.6
20260505033219 67 149 2.0 2.0 0.00 0.00 0.00 64 1009.7
20260505032717 67 142 1.0 2.0 0.00 0.00 0.00 63 1009.5
20260505032212 68 162 2.0 3.0 0.00 0.00 0.00 61 1009.5
20260505031710 68 145 0.0 2.0 0.00 0.00 0.00 60 1009.5
20260505031206 69 169 0.0 1.0 0.00 0.00 0.00 57 1009.6
20260505030703 70 172 1.0 2.0 0.00 0.00 0.00 54 1009.4
20260505030159 69 199 1.0 1.0 0.00 0.00 0.00 52 1009.4
20260505025655 69 202 2.0 5.0 0.00 0.00 0.00 52 1009.4
20260505025154 70 236 2.0 3.0 0.00 0.00 0.00 52 1009.2
20260505024651 70 221 1.0 1.0 0.00 0.00 0.00 51 1009.1
20260505024148 70 206 1.0 2.0 0.00 0.00 0.00 49 1009.1
20260505023646 70 227 1.0 3.0 0.00 0.00 0.00 51 1009.1
20260505023143 71 201 2.0 5.0 0.00 0.00 0.00 50 1009.1
20260505022640 70 258 3.0 5.0 0.00 0.00 0.00 50 1009.2
20260505022137 70 234 2.0 3.0 0.00 0.00 0.00 50 1009.2
20260505021634 70 286 3.0 5.0 0.00 0.00 0.00 51 1009.1
20260505021130 70 253 3.0 7.0 0.00 0.00 0.00 52 1009.4
20260505020626 70 236 3.0 5.0 0.00 0.00 0.00 52 1009.1
20260505020122 70 216 1.0 6.0 0.00 0.00 0.00 52 1009.2
20260505015619 70 245 5.0 7.0 0.00 0.00 0.00 52 1009.0
20260505015116 70 224 3.0 9.0 0.00 0.00 0.00 53 1009.5
20260505014613 71 235 5.0 7.0 0.00 0.00 0.00 53 1009.2
20260505014110 72 250 3.0 5.0 0.00 0.00 0.00 53 1009.0
20260505013607 73 228 5.0 6.0 0.00 0.00 0.00 51 1009.1
20260505013104 77 236 4.0 6.0 0.00 0.00 0.00 48 1009.1
20260505012602 77 217 5.0 7.0 0.00 0.00 0.00 45 1009.0
20260505012059 77 185 3.0 6.0 0.00 0.00 0.00 45 1009.2
20260505011554 77 162 2.0 5.0 0.00 0.00 0.00 44 1009.1
20260505011052 78 166 2.0 6.0 0.00 0.00 0.00 44 1009.4
20260505010547 78 137 2.0 3.0 0.00 0.00 0.00 43 1009.1
20260505010044 78 145 3.0 5.0 0.00 0.00 0.00 42 1009.2
20260505005540 79 113 4.0 7.0 0.00 0.00 0.00 41 1009.0
20260505005038 78 170 2.0 3.0 0.00 0.00 0.00 40 1009.2
20260505004535 79 121 2.0 6.0 0.00 0.00 0.00 40 1009.0
20260505004032 80 147 3.0 7.0 0.00 0.00 0.00 40 1009.4
20260505003529 79 93 1.0 6.0 0.00 0.00 0.00 40 1009.2
20260505003026 79 97 1.0 3.0 0.00 0.00 0.00 39 1009.4
20260505002527 79 148 1.0 6.0 0.00 0.00 0.00 39 1009.0
20260505002026 79 110 1.0 3.0 0.00 0.00 0.00 38 1009.2
20260505001523 79 158 4.0 6.0 0.00 0.00 0.00 38 1009.5
20260505001020 79 196 1.0 6.0 0.00 0.00 0.00 39 1009.2
20260505000517 79 112 2.0 3.0 0.00 0.00 0.00 37 1009.2
20260505000015 79 124 2.0 6.0 0.00 0.00 0.00 38 1009.6
20260504235511 78 143 3.0 6.0 0.00 0.00 0.00 38 1009.4
20260504235008 80 95 3.0 6.0 0.00 0.00 0.00 38 1009.2
20260504234505 80 175 4.0 5.0 0.00 0.00 0.00 37 1009.4
20260504234002 79 182 3.0 6.0 0.00 0.00 0.00 37 1009.4
20260504233457 79 182 2.0 5.0 0.00 0.00 0.00 40 1009.2
20260504232954 78 117 2.0 8.0 0.00 0.00 0.00 38 1009.2
20260504232451 79 127 1.0 5.0 0.00 0.00 0.00 38 1009.4
20260504231949 79 119 4.0 7.0 0.00 0.00 0.00 38 1009.5
20260504231445 80 106 3.0 5.0 0.00 0.00 0.00 37 1009.7
20260504230941 80 106 2.0 6.0 0.00 0.00 0.00 37 1009.4
20260504230438 79 166 3.0 6.0 0.00 0.00 0.00 39 1009.5
20260504225937 80 166 2.0 6.0 0.00 0.00 0.00 37 1009.2
20260504225433 79 115 4.0 8.0 0.00 0.00 0.00 38 1009.5
20260504224931 80 111 1.0 5.0 0.00 0.00 0.00 37 1009.7
20260504224427 80 181 5.0 7.0 0.00 0.00 0.00 37 1009.8
20260504223924 80 124 3.0 3.0 0.00 0.00 0.00 37 1009.9
20260504223420 79 164 3.0 5.0 0.00 0.00 0.00 38 1009.8
20260504222916 78 158 3.0 6.0 0.00 0.00 0.00 38 1009.9
20260504222414 78 222 7.0 9.0 0.00 0.00 0.00 39 1010.1
20260504221912 79 90 2.0 3.0 0.00 0.00 0.00 39 1010.1
20260504221408 79 113 5.0 7.0 0.00 0.00 0.00 38 1010.1
20260504220905 78 69 2.0 5.0 0.00 0.00 0.00 39 1010.1
20260504220402 79 189 1.0 5.0 0.00 0.00 0.00 39 1010.2
20260504215859 79 192 6.0 8.0 0.00 0.00 0.00 40 1010.3
20260504215355 79 194 5.0 6.0 0.00 0.00 0.00 40 1010.5
20260504214851 78 107 3.0 5.0 0.00 0.00 0.00 42 1010.2
20260504214348 79 173 1.0 7.0 0.00 0.00 0.00 44 1010.5
20260504213845 78 149 1.0 6.0 0.00 0.00 0.00 45 1010.4
20260504213341 77 139 1.0 6.0 0.00 0.00 0.00 46 1010.4
20260504212839 78 147 1.0 5.0 0.00 0.00 0.00 45 1010.3
20260504212334 77 152 4.0 8.0 0.00 0.00 0.00 47 1010.7
20260504211833 77 164 1.0 7.0 0.00 0.00 0.00 47 1010.5
20260504211328 77 143 1.0 5.0 0.00 0.00 0.00 46 1010.5
20260504210826 77 105 2.0 8.0 0.00 0.00 0.00 47 1010.7
20260504210322 76 159 3.0 7.0 0.00 0.00 0.00 48 1010.8
20260504205820 77 148 3.0 7.0 0.00 0.00 0.00 46 1010.6
20260504205317 76 68 3.0 7.0 0.00 0.00 0.00 46 1010.6
20260504204815 77 155 3.0 6.0 0.00 0.00 0.00 46 1010.5
20260504204314 76 170 2.0 5.0 0.00 0.00 0.00 44 1010.7
20260504203813 76 126 4.0 6.0 0.00 0.00 0.00 43 1010.6
20260504203309 75 92 2.0 7.0 0.00 0.00 0.00 45 1010.7
20260504202804 76 89 0.0 7.0 0.00 0.00 0.00 44 1010.7
20260504202304 75 105 2.0 8.0 0.00 0.00 0.00 44 1010.8
20260504201759 75 158 3.0 6.0 0.00 0.00 0.00 43 1010.6
20260504201256 76 186 4.0 6.0 0.00 0.00 0.00 42 1010.7
20260504200754 75 89 6.0 7.0 0.00 0.00 0.00 40 1010.7
20260504200249 75 186 3.0 6.0 0.00 0.00 0.00 41 1010.8
20260504195746 76 119 3.0 6.0 0.00 0.00 0.00 40 1010.6
20260504195242 75 123 0.0 3.0 0.00 0.00 0.00 41 1010.7
20260504194739 75 117 2.0 7.0 0.00 0.00 0.00 40 1010.7
20260504194235 75 95 5.0 7.0 0.00 0.00 0.00 39 1010.5
20260504193731 75 174 2.0 8.0 0.00 0.00 0.00 40 1010.7
20260504193229 74 104 1.0 6.0 0.00 0.00 0.00 39 1010.8
20260504192727 75 97 5.0 6.0 0.00 0.00 0.00 37 1010.7
20260504192225 74 106 4.0 7.0 0.00 0.00 0.00 36 1010.8
20260504191724 75 117 4.0 7.0 0.00 0.00 0.00 36 1010.8
20260504191220 76 120 3.0 5.0 0.00 0.00 0.00 36 1011.0
20260504190715 74 146 2.0 5.0 0.00 0.00 0.00 38 1010.9
20260504190212 74 79 1.0 7.0 0.00 0.00 0.00 40 1010.9
20260504185709 74 39 0.0 2.0 0.00 0.00 0.00 39 1011.1
20260504185205 75 104 1.0 2.0 0.00 0.00 0.00 37 1011.3
20260504184701 74 81 1.0 2.0 0.00 0.00 0.00 41 1010.9
20260504184156 74 125 0.0 3.0 0.00 0.00 0.00 41 1011.0
20260504183654 74 82 0.0 6.0 0.00 0.00 0.00 42 1011.0
20260504183151 74 118 3.0 6.0 0.00 0.00 0.00 42 1011.0
20260504182649 74 71 3.0 6.0 0.00 0.00 0.00 43 1010.8
20260504182146 73 122 1.0 5.0 0.00 0.00 0.00 44 1011.1
20260504181643 72 153 3.0 5.0 0.00 0.00 0.00 47 1011.0
20260504181141 72 214 2.0 5.0 0.00 0.00 0.00 46 1011.0
20260504180640 72 162 3.0 5.0 0.00 0.00 0.00 46 1011.0
20260504180138 73 231 3.0 5.0 0.00 0.00 0.00 45 1011.1
20260504175635 73 172 0.0 1.0 0.00 0.00 0.00 43 1010.9
20260504175131 72 228 1.0 3.0 0.00 0.00 0.00 43 1011.0
20260504174630 71 196 1.0 3.0 0.00 0.00 0.00 46 1010.9
20260504174126 71 202 2.0 3.0 0.00 0.00 0.00 48 1011.0
20260504173623 71 132 3.0 3.0 0.00 0.00 0.00 46 1011.0
20260504173121 71 201 2.0 5.0 0.00 0.00 0.00 46 1010.9
20260504172617 71 204 2.0 3.0 0.00 0.00 0.00 48 1011.2
20260504172114 71 205 2.0 3.0 0.00 0.00 0.00 49 1011.3
20260504171610 72 92 0.0 2.0 0.00 0.00 0.00 45 1011.1
20260504171108 71 61 0.0 2.0 0.00 0.00 0.00 47 1011.0
20260504170603 70 157 2.0 3.0 0.00 0.00 0.00 48 1010.8
20260504150947 63 110 2.0 3.0 0.00 0.00 0.00 62 1010.5
20260504150443 63 99 1.0 1.0 0.00 0.00 0.00 62 1010.4
20260504140910 59 81 1.0 2.0 0.00 0.00 0.00 70 1010.1
20260504140406 58 90 1.0 2.0 0.00 0.00 0.00 69 1010.1
20260504130331 55 236 0.0 0.0 0.00 0.00 0.00 71 1009.2
20260504120254 55 236 0.0 0.0 0.00 0.00 0.00 69 1009.2
20260504110218 58 236 0.0 0.0 0.00 0.00 0.00 60 1009.1
20260504100136 59 236 0.0 0.0 0.00 0.00 0.00 59 1009.1
20260504081530 64 30 0.0 1.0 0.00 0.00 0.00 52 1009.4
20260504081025 64 32 2.0 2.0 0.00 0.00 0.00 52 1009.2
20260504080521 64 32 1.0 2.0 0.00 0.00 0.00 52 1009.4